STARLINK-32382, 61258

Orbit data source: Space-Track

STARLINK-32382, 61258 is a payload satellite owned by SpaceX/Seattle (US) in LEO that was launched on Wed, 25 Sep 2024 UTC via an FALCON 9 launch vehicle from the Air Force Western Test Range (AFWTR). Payloads include a variety of satellites, spacecraft, and rockets equipped with specific instruments for various scientific and technological missions. These include communications satellites like Starlink; space stations such as the ISS; scientific satellites like the Hubble; Earth observation satellites from companies like Planet Labs, Umbra, and HawkEye 360; GPS; miniature CubeSats for education and research; and military/defense satellites.

Loading next visibility...
STARLINK-32382 details
Identifier
61258, 2024-175R
Orbit
LEO
Last TLE update23 hours ago
Origin
Flag of USSpaceX/Seattle (US)
ManufacturerSpaceX/Seattle
MissionOperational spacecraft
Bus & MotorSTARLINK V2M, Unknown motor
Mass730 kg wet, ~700 kg dry
Launch date (UTC)
2024-09-25 (3 months ago)
Launch vehicle
FALCON 9
Launch site
Air Force Western Test Range (AFWTR)
Object type
Payload
Rocket body
Debris
Shape & HBRUnknown
Radar Cross SectionLarge (>1 m²)

Expand to show TLE details & history

TLE from 23 hours ago
0 STARLINK-32382
1 61258U 24175R   24355.55267314  .00002100  00000-0  62497-4 0  9998
2 61258  53.1590  99.8980 0001584  87.3951 272.7235 15.39604508 13419
Epoch: 2024-12-20T13:15Z
Definitive object data (Epoch: 2024-12-20T13:15:50.959Z)
Latitude-0.00003°
Longitude171.31911°
Altitude448.13 km
Speed7.645 km/s
True Right ascension06h 39m 35s
True Declination0° 00' 00"
Sunlit
Object was in full shadow at TLE epoch
Visualization TLE readout
Latitude-39.14685°
Longitude24.17621°
Altitude460.925 km
Speed7.635 km/s
Apparent Right ascension21h 55m 54s
Apparent Declination-40° 34' 57"
Sunlit
Object is in daylight
Visualization observer readout
Local Sidereal Time11:06:25
Azimuth98.535° ESE
Elevation-76.551°
Doppler factor1
Orbital elements
Apogee altitude448.617 km
Perigee altitude446.454 km
Semi-major axis6,825.673 km
Eccentricity0.0001584
Inclination53.159°
RAAN99.898°
Arg. of periapsis87.3951°
True anomaly272.70537°
Mean anomaly272.7235°
Eccentric anomaly272.71443°
Mean motion3.8488 °/min
BSTAR0.000062497
Orbital period93.54 mins
Loading maneuver chart data...
Loading historical data...
Loading historical data...
Loading historical data...
Loading historical data...
Loading historical data...
Loading historical data...
Loading historical data...

STARLINK-32382 Visibility forecast

Observer location: undefined°, undefined

Span
Click to sort rows by Start time (UTC) header in descending order
Start Az.
Max El. time (UTC)
Max El. Az.
Max El.
End time (UTC)
End Az.
5 mins2024-12-21 16:14:40.771Z324.511° NNW2024-12-21 16:16:40.771Z19.584° NNE38.121°2024-12-21 16:19:40.771Z111.856° ESE
5 mins2024-12-22 09:03:40.771Z201.535° SSW2024-12-22 09:05:40.771Z151.049° SSE34.701°2024-12-22 09:08:40.771Z64.8° ENE
4 mins2024-12-22 10:41:40.771Z290.681° WNW2024-12-22 10:43:40.771Z340.522° N22.168°2024-12-22 10:45:40.771Z21.964° NNE
|